Location: Alvis C Story Elementary School
(33.0968°N, 96.6364°W)
Time: 19:46:18
(UTC+00:00)

Cosmos 1602 - Pass Details

Date: 12 July 2022
Orbit: 508 x 526 km, 82.5° (Epoch: 17 August)

Event Time Altitude Azimuth Distance (km) Brightness Sun altitude
Exits shadow 08:07:12 21° 2° (N) 1,183 6.1 -30.5°
Drops below altitude 10° 08:08:35 10° 4° (N) 1,736 7.1 -30.3°
Sets 08:10:43 0° 5° (N) 2,628 8.3 -30.1°
